Demopolis Municipal Airport, AL

9:01 PM CST on November 16, 2019 (GMT -0600)
Demopolis Municipal Airport

Weather History for KDYA - September, 2019

Change the Weather History Date:

Friday, September 13, 2019

  Actual Average (KNMM) Record (KNMM)
Temperature  
Mean Temperature 84 °F -  
Max Temperature 97 °F 84 °F 91 °F (2011)
Min Temperature 70 °F 64 °F 54 °F (2015)
Cooling Degree Days 18    
Growing Degree Days 34 (Base 50)    
Moisture  
Dew Point 70 °F    
Average Humidity 70    
Maximum Humidity 100    
Minimum Humidity 33    
Precipitation  
Precipitation 0.00 in - - ()
Sea Level Pressure  
Sea Level Pressure 30.09 in    
Wind  
Wind Speed 1 mph ()    
Max Wind Speed 14 mph    
Max Gust Speed 24 mph    
Visibility 7.0 miles    
Events Rain    
Averages and records for this station are not official NWS values.
T = Trace of Precipitation, MM = Missing Value Source: Averaged Metar Reports

Daily Weather History Graph

Daily Weather History Graph

Search for Another Location

Airport or City:

Astronomy

Sep. 13, 2019 Rise Set
Actual Time 6:34 AM CDT 7:00 PM CDT
Civil Twilight 6:09 AM CDT 7:25 PM CDT
Nautical Twilight 5:40 AM CDT 7:54 PM CDT
Astronomical Twilight 5:11 AM CDT 8:23 PM CDT
Moon 7:10 PM CDT (9/13) 5:56 AM CDT (9/13)
Length of Visible Light 13h 15m
Length of Day
12h 26m
Full, 100% of the Moon is Illuminated
Sep 13
Full
Sep 13
Full
Sep 21
Last Quarter
Sep 28
New
Oct 5
First Quarter

Hourly Weather History & Observations

Time (CDT) Temp. Heat Index Dew Point Humidity Pressure Visibility Wind Dir Wind Speed Gust Speed Precip Events Conditions
12:15 AM 73.0 °F - 70.7 °F 92% 30.08 in 7.0 mi Calm Calm - N/A   Clear
12:55 AM 72.7 °F - 70.7 °F 93% 30.08 in 7.0 mi Calm Calm - N/A   Clear
1:15 AM 72.9 °F - 71.2 °F 95% 30.09 in 7.0 mi Calm Calm - N/A   Clear
1:35 AM 72.3 °F - 70.9 °F 95% 30.09 in 5.0 mi Calm Calm - N/A   Clear
1:55 AM 72.0 °F - 70.9 °F 96% 30.09 in 7.0 mi Calm Calm - N/A   Clear
2:15 AM 72.0 °F - 71.2 °F 98% 30.09 in 7.0 mi Calm Calm - N/A   Clear
2:35 AM 72.3 °F - 71.8 °F 98% 30.09 in 5.0 mi Calm Calm - N/A   Clear
2:55 AM 71.6 °F - 71.6 °F 100% 30.09 in 5.0 mi Calm Calm - N/A   Clear
3:15 AM 70.9 °F - 70.9 °F 100% 30.09 in 4.0 mi Calm Calm - N/A   Clear
3:35 AM 71.1 °F - 71.1 °F 100% 30.08 in 5.0 mi Calm Calm - N/A   Clear
3:55 AM 70.2 °F - 70.2 °F 100% 30.08 in 4.0 mi Calm Calm - N/A   Clear
4:15 AM - - - N/A% 30.09 in 4.0 mi Calm Calm - N/A   Haze
4:35 AM - - - N/A% 30.09 in 4.0 mi Calm Calm - N/A   Haze
4:55 AM - - - N/A% 30.09 in 5.0 mi Calm Calm - N/A   Haze
5:15 AM - - - N/A% 30.09 in 3.0 mi Calm Calm - N/A   Clear
5:35 AM - - - N/A% 30.10 in 3.0 mi Calm Calm - N/A   Clear
5:55 AM - - - N/A% 30.10 in 4.0 mi Calm Calm - N/A   Haze
6:15 AM - - - N/A% 30.10 in 5.0 mi Calm Calm - N/A   Haze
6:55 AM - - - N/A% 30.11 in 5.0 mi Calm Calm - N/A   Haze
7:15 AM - - - N/A% 30.11 in 5.0 mi Calm Calm - N/A   Haze
7:35 AM - - - N/A% 30.12 in 5.0 mi Calm Calm - N/A   Haze
7:55 AM - - - N/A% 30.12 in 5.0 mi Calm Calm - N/A   Haze
8:15 AM 73.8 °F - 73.8 °F 100% 30.12 in 5.0 mi Calm Calm - N/A   Clear
8:35 AM 75.9 °F - 73.0 °F 91% 30.13 in 5.0 mi Calm Calm - N/A   Clear
8:55 AM 77.9 °F - 72.7 °F 84% 30.13 in 5.0 mi Calm Calm - N/A   Haze
9:55 AM 83.5 °F 88.5 °F 71.6 °F 67% 30.14 in 7.0 mi Calm Calm - N/A   Clear
10:15 AM 85.8 °F 91.8 °F 72.1 °F 63% 30.14 in 7.0 mi Calm Calm - N/A   Clear
10:35 AM 87.4 °F 93.5 °F 71.4 °F 59% 30.14 in 7.0 mi Calm Calm - N/A   Clear
10:55 AM 89.2 °F 94.9 °F 70.7 °F 54% 30.14 in 7.0 mi Calm Calm - N/A   Clear
11:15 AM 90.7 °F 96.4 °F 70.5 °F 51% 30.14 in 7.0 mi Calm Calm - N/A   Clear
11:55 AM 93.9 °F 97.0 °F 66.6 °F 40% 30.13 in 7.0 mi Calm Calm - N/A   Clear
12:15 PM 94.5 °F 98.5 °F 67.6 °F 41% 30.12 in 10.0 mi Calm Calm - N/A   Clear
12:35 PM 95.2 °F 98.8 °F 66.4 °F 39% 30.12 in 10.0 mi North 4.6 mph - N/A   Clear
12:55 PM 96.4 °F 100.0 °F 66.0 °F 37% 30.11 in 10.0 mi NE 4.6 mph - N/A   Clear
1:15 PM 95.9 °F 98.5 °F 65.3 °F 36% 30.11 in 10.0 mi North 10.4 mph - N/A   Clear
1:55 PM 94.3 °F 98.7 °F 68.2 °F 42% 30.10 in 10.0 mi North 5.8 mph - N/A   Clear
2:15 PM 96.1 °F 100.5 °F 67.6 °F 39% 30.09 in 7.0 mi North 6.9 mph - N/A   Clear
2:35 PM 96.6 °F 100.3 °F 66.6 °F 37% 30.08 in 10.0 mi North 10.4 mph 16.1 mph N/A   Clear
2:55 PM 97.0 °F 99.9 °F 65.1 °F 35% 30.07 in 7.0 mi NNE 9.2 mph - N/A   Clear
3:15 PM 97.0 °F 98.8 °F 63.3 °F 33% 30.06 in 10.0 mi North 6.9 mph - N/A   Clear
3:35 PM 97.9 °F 100.3 °F 64.6 °F 33% 30.06 in 10.0 mi North 10.4 mph - N/A   Clear
3:55 PM 96.8 °F 99.0 °F 64.2 °F 34% 30.05 in 10.0 mi North 6.9 mph - N/A   Clear
4:15 PM 97.0 °F 99.3 °F 64.0 °F 34% 30.05 in 10.0 mi North 9.2 mph - N/A   Clear
4:35 PM 96.3 °F 98.6 °F 64.4 °F 35% 30.06 in 10.0 mi North 13.8 mph 24.2 mph N/A   Scattered Clouds
4:55 PM 91.8 °F 93.4 °F 64.2 °F 40% 30.05 in 7.0 mi North 6.9 mph 17.3 mph N/A   Scattered Clouds
5:35 PM 90.1 °F 91.6 °F 64.2 °F 42% 30.05 in 10.0 mi Calm Calm - N/A   Clear
5:55 PM 89.6 °F 91.8 °F 65.5 °F 45% 30.06 in 7.0 mi ESE 3.5 mph - N/A   Scattered Clouds
6:15 PM 89.6 °F 91.8 °F 65.8 °F 45% 30.05 in 10.0 mi Calm Calm - N/A   Scattered Clouds
6:35 PM 83.7 °F 88.6 °F 71.1 °F 66% 30.06 in 10.0 mi Calm Calm - N/A Rain Light Rain
6:55 PM 81.1 °F 86.6 °F 73.9 °F 79% 30.06 in 10.0 mi Calm Calm - N/A   Clear
7:15 PM 79.7 °F - 73.6 °F 81% 30.06 in 10.0 mi Calm Calm - N/A   Clear
7:35 PM 78.8 °F - 73.0 °F 82% 30.06 in 7.0 mi NNE 3.5 mph - N/A   Scattered Clouds
7:55 PM 77.5 °F - 72.9 °F 85% 30.07 in 7.0 mi Calm Calm - N/A   Scattered Clouds
8:15 PM 76.6 °F - 72.9 °F 88% 30.07 in 7.0 mi Calm Calm - N/A   Clear
8:35 PM 76.1 °F - 72.0 °F 87% 30.07 in 7.0 mi Calm Calm - N/A   Scattered Clouds
8:55 PM 75.9 °F - 71.8 °F 87% 30.08 in 10.0 mi Calm Calm - N/A   Clear
9:15 PM 75.2 °F - 72.5 °F 91% 30.09 in 7.0 mi Calm Calm - N/A   Clear
9:35 PM 74.8 °F - 72.0 °F 91% 30.10 in 7.0 mi Calm Calm - N/A   Clear
9:55 PM 74.7 °F - 71.6 °F 90% 30.10 in 7.0 mi Calm Calm - N/A   Clear
10:15 PM 74.5 °F - 71.6 °F 91% 30.11 in 7.0 mi Calm Calm - N/A   Clear
10:35 PM 74.3 °F - 71.8 °F 92% 30.11 in 7.0 mi Calm Calm - N/A   Scattered Clouds
10:55 PM 75.2 °F - 72.1 °F 90% 30.11 in 7.0 mi Calm Calm - N/A   Mostly Cloudy
11:15 PM 75.0 °F - 72.3 °F 91% 30.11 in 7.0 mi Calm Calm - N/A   Overcast
11:35 PM 74.7 °F - 72.0 °F 91% 30.11 in 7.0 mi Calm Calm - N/A   Mostly Cloudy
11:55 PM 74.5 °F - 72.1 °F 92% 30.11 in 7.0 mi Calm Calm - N/A   Mostly Cloudy